Dewpoint
24 21 19 20 21 20 21 20 20 21 22 21 18 16 16 30 44 46 48 49 49 56 60 63 65 67 66 66 65 64 63 62 62 61 60 59 59 59 60 61 59 58 58 55
22 20 21 22 23 23 23 22 20 20 23 18 16 15 34 46 45 46 47 48 54 58 61 62 64 65 66 65 65 65 64 63 63 63 61 61 60 60 61 61 60 57 55 53
23 22 23 22 22 23 21 21 20 18 20 20 16 16 31 50 53 51 55 55 56 58 59 60 62 63 64 65 65 64 63 63 63 63 62 61 60 60 60 59 55 54 53 52
20 22 21 22 20 21 19 22 22 21 20 16 18 13 18 43 51 53 56 56 56 58 58 60 61 62 63 63 63 63 63 63 63 63 61 60 60 59 58 54 50 50 53 53
22 21 21 20 19 22 18 23 22 24 20 19 18 15 16 45 47 47 53 56 56 57 58 59 60 61 61 61 60 60 61 61 61 62 61 59 54 52 49 48 49 49 48 49
23 26 22 20 21 22 25 23 21 23 21 16 16 16 16 43 46 47 53 55 57 57 56 59 60 61 60 58 57 57 56 54 55 55 55 53 50 48 47 47 45 45 45 46
17 17 21 23 22 24 21 20 18 18 16 16 21 18 19 25 34 42 48 54 58 58 57 58 58 59 58 56 55 54 53 51 51 51 52 50 49 48 46 46 45 45 44 44
15 13 15 20 18 18 20 20 20 13 16 15 24 20 22 44 52 52 53 56 58 57 58 57 57 58 56 55 54 52 51 50 50 49 49 48 48 46 46 46 45 45 44 45
18 16 22 22 22 21 22 19 21 20 23 20 19 22 38 51 54 54 55 57 57 58 58 57 57 57 56 55 53 51 49 49 49 48 47 47 47 47 46 46 46 45 46 46
19 17 20 22 20 21 21 23 19 21 17 16 17 23 25 38 49 54 54 55 56 57 58 57 57 56 55 54 52 51 49 49 49 47 47 46 46 46 46 45 46 46 47 46
20 19 17 18 18 16 16 19 23 22 24 18 17 20 29 36 41 53 54 55 55 56 57 57 56 55 54 53 52 50 49 49 49 48 46 46 45 47 45 45 46 47 47 46
25 21 18 15 17 19 17 17 22 22 19 26 24 23 27 32 42 53 54 55 54 55 56 56 55 54 53 53 51 50 50 49 48 46 46 45 45 47 46 46 46 46 46 45
22 21 20 21 20 21 22 21 22 25 26 25 23 24 35 45 48 52 54 54 54 53 54 54 54 54 53 52 51 49 49 47 47 47 46 46 46 47 46 47 47 46 46 45
38 24 21 23 21 25 26 27 24 23 23 22 28 24 26 44 47 50 52 54 53 53 54 54 54 54 53 52 50 49 48 47 46 47 46 46 47 47 47 46 47 47 46 45
31 26 29 28 29 28 29 29 28 23 23 22 22 25 25 35 46 48 51 52 52 52 53 54 54 53 53 52 49 49 47 46 46 46 45 45 46 47 46 46 47 46 46 46
33 27 26 24 23 24 28 29 29 26 25 25 27 26 29 33 47 47 48 50 51 52 53 54 54 54 52 50 49 47 46 45 44 44 45 46 46 45 46 46 45 45 45 44
33 30 25 20 27 24 16 25 29 27 26 24 23 26 44 47 46 47 48 50 50 52 53 54 54 54 52 49 48 46 45 45 45 45 45 45 47 47 46 45 44 45 44 43
33 27 27 24 25 16 16 34 32 30 28 28 29 35 43 44 47 48 49 50 51 52 53 54 55 53 50 47 47 46 45 45 44 44 45 46 44 44 43 43 43 43 43 43
36 32 28 26 25 22 21 22 31 29 31 31 30 36 47 51 51 50 51 51 52 53 54 55 54 50 48 47 46 46 44 43 44 44 45 43 43 43 43 43 42 42 42 42
38 36 31 29 27 23 30 32 43 37 30 35 39 42 50 49 45 44 52 52 54 54 54 51 50 49 47 46 46 44 43 43 45 43 43 43 43 44 43 43 42 42 41 41
31 33 32 29 24 25 31 29 34 30 31 40 45 45 50 48 47 49 53 53 53 52 50 50 49 47 46 45 43 42 43 44 44 44 43 43 45 45 44 44 42 41 40 41
30 30 32 30 26 23 33 42 24 27 38 45 46 49 50 50 51 52 51 50 49 49 49 49 46 45 43 43 43 44 43 43 44 43 45 44 44 42 41 41 40 40 41 41
31 34 34 35 33 37 41 44 44 46 44 46 47 50 51 50 50 50 49 48 48 48 47 47 44 42 43 44 43 42 42 43 45 44 43 44 43 40 39 40 40 39 40 39
34 40 38 36 39 41 43 44 44 41 45 48 50 52 52 50 50 49 48 48 48 47 45 43 42 41 42 42 42 43 44 45 44 43 44 44 41 40 39 36 36 37 37 38
36 36 34 36 34 41 44 46 47 48 50 52 53 52 51 50 49 49 49 48 47 45 43 42 42 41 41 42 44 44 45 45 43 43 43 43 41 41 39 36 36 38 38 38
37 36 36 34 41 42 42 48 51 53 53 53 52 51 51 50 49 51 50 50 49 46 42 41 41 42 42 45 44 44 45 44 44 43 41 41 42 39 35 35 38 38 38 37
Lifted_Index
7 6 5 5 5 5 4 3 3 3 3 2 2 1 1 0 0 0 0 -1 -1 -1 -2 -2 -3 -3 -3 -3 -2 -2 -3 -3 -2 -2 -2 -2 -1 -1 -1 -1 -1 -1 -1 -1
6 6 5 6 6 5 4 3 2 2 3 3 2 1 1 -0 -0 -0 -0 -1 -1 -1 -2 -2 -3 -3 -3 -3 -3 -3 -3 -3 -2 -2 -2 -2 -1 -1 -1 -1 -1 -1 -1 -0
6 6 6 6 6 5 4 3 2 2 3 2 2 1 0 -0 -1 -1 -1 -1 -1 -1 -1 -2 -2 -3 -4 -3 -3 -3 -3 -3 -2 -2 -2 -2 -2 -2 -2 -2 -2 -1 0 1
7 6 6 6 6 5 4 3 3 3 3 2 2 1 1 0 -1 -1 -1 -1 -1 -1 -2 -2 -2 -3 -4 -4 -4 -4 -3 -3 -3 -3 -2 -2 -2 -2 -2 -2 -1 0 2 3
6 6 6 6 6 5 5 4 4 4 3 2 2 2 1 1 0 -1 -1 -2 -2 -2 -2 -2 -2 -3 -3 -4 -4 -4 -4 -3 -3 -3 -3 -3 -2 -1 -1 -0 1 2 4 6
6 6 6 6 6 6 5 5 4 4 3 2 2 2 2 2 1 0 -1 -2 -2 -2 -2 -2 -2 -2 -3 -3 -3 -4 -4 -4 -4 -3 -3 -2 -1 0 1 2 3 4 6 7
5 5 6 6 6 6 5 4 3 2 2 2 2 2 2 2 2 1 -0 -1 -2 -2 -2 -2 -2 -3 -3 -3 -3 -3 -3 -3 -3 -2 -1 -0 1 2 2 3 4 5 7 8
4 4 5 5 5 5 4 4 3 2 2 2 2 2 3 2 1 0 0 -1 -2 -2 -2 -2 -3 -3 -3 -3 -3 -2 -2 -1 -1 -0 0 1 2 2 3 5 6 7 9 11
4 4 4 5 5 5 4 4 3 2 2 2 2 3 3 2 1 0 -0 -1 -2 -2 -3 -3 -3 -3 -3 -3 -2 -0 0 1 1 1 1 1 2 3 4 6 8 10 12 13
5 4 4 5 5 5 4 4 3 3 2 2 2 3 3 2 1 0 -1 -1 -2 -2 -3 -3 -3 -3 -2 -1 0 1 2 2 1 1 2 2 3 4 6 7 10 12 13 14
5 4 3 4 5 5 4 4 3 3 2 2 2 3 3 3 2 0 -1 -2 -2 -2 -3 -3 -3 -2 -1 1 2 2 2 2 1 2 2 3 4 5 7 9 11 12 13 13
4 3 2 3 4 4 4 4 4 3 3 3 3 3 3 3 2 0 -1 -2 -2 -3 -3 -4 -3 -1 1 2 2 2 2 2 2 2 3 3 4 6 8 10 12 12 12 12
4 3 2 2 2 3 3 4 4 4 3 3 3 3 3 2 1 -0 -2 -3 -3 -3 -4 -3 -1 0 1 2 2 2 2 2 2 3 3 4 5 7 10 11 12 12 12 11
4 3 3 2 2 2 3 3 3 3 3 3 3 3 3 2 1 -1 -2 -3 -4 -4 -4 -3 -1 1 1 1 2 2 2 2 3 3 4 5 7 9 11 12 12 12 11 11
4 4 3 3 3 3 3 2 2 2 3 3 3 3 3 2 1 -0 -1 -3 -4 -4 -4 -2 -1 0 1 1 2 2 2 3 3 3 4 6 8 10 12 12 12 12 11 11
5 4 4 3 3 3 3 3 2 2 2 3 3 3 3 2 1 0 -1 -2 -3 -3 -3 -2 -1 0 0 1 1 2 2 3 4 4 5 7 10 11 12 12 12 12 12 12
5 5 4 3 3 3 3 3 2 2 2 2 2 3 2 2 1 1 -0 -1 -2 -2 -2 -2 -1 -0 0 1 1 2 2 3 4 5 6 8 11 12 12 12 12 12 12 12
6 6 4 3 3 3 3 4 3 2 1 2 2 2 2 1 1 1 0 -0 -1 -2 -2 -2 -1 -0 0 1 1 2 2 3 4 5 7 9 11 12 12 12 12 12 12 12
7 6 5 4 3 3 4 4 3 2 2 2 1 1 1 0 0 0 -0 -0 -1 -1 -2 -2 -1 -0 0 1 1 2 2 3 5 6 8 10 12 12 12 12 12 12 12 12
6 6 5 4 3 3 5 5 3 2 2 2 1 1 0 -0 -0 -0 -0 -1 -1 -2 -2 -2 -1 -0 -0 0 1 1 2 4 5 8 10 11 12 12 12 11 11 12 12 12
5 5 5 4 3 3 5 5 4 4 3 2 1 0 -0 -1 -1 -0 -1 -1 -2 -2 -2 -2 -1 -1 -0 0 1 1 3 5 7 10 11 12 12 12 11 11 12 12 12 11
5 5 4 4 4 4 5 5 4 4 4 2 1 0 -0 -1 -1 -1 -1 -2 -2 -2 -2 -2 -1 -1 -0 1 1 2 4 7 10 11 12 12 12 12 12 12 12 12 11 11
5 5 5 4 4 4 4 4 4 4 4 2 1 0 -0 -1 -1 -1 -2 -2 -2 -2 -2 -1 -1 -1 -0 1 2 4 6 9 11 11 12 12 12 12 12 12 12 11 11 11
6 6 5 5 5 4 4 4 3 3 3 2 1 0 -0 -1 -1 -2 -2 -2 -2 -2 -2 -1 -1 -1 0 2 5 7 9 11 11 12 12 12 12 13 13 13 12 11 11 11
8 7 6 6 5 5 4 3 3 3 2 2 1 0 -0 -1 -1 -2 -2 -2 -2 -2 -2 -1 -1 1 3 5 8 9 11 11 12 12 12 12 12 13 12 12 11 11 11 11
8 8 7 6 6 5 5 3 2 2 2 1 1 -0 -1 -1 -1 -1 -2 -2 -2 -2 -1 -1 0 2 5 7 9 11 11 11 12 12 12 12 12 12 12 11 11 11 11 11